Weather History for KD57 - May, 2014

Change the Weather History Date:

Saturday, May 17, 2014

  Actual Average (KDIK) Record (KDIK)
Temperature  
Mean Temperature 48 °F 54 °F  
Max Temperature 64 °F 66 °F 93 °F (1934)
Min Temperature 32 °F 41 °F 24 °F (2002)
Degree Days  
Heating Degree Days 17 12  
Month to date heating degree days 244  
Since 1 July heating degree days 8306  
Cooling Degree Days 0 0  
Month to date cooling degree days 0  
Year to date cooling degree days 1  
Moisture  
Dew Point 36 °F    
Average Humidity 59    
Maximum Humidity 93    
Minimum Humidity 32    
Precipitation  
Precipitation 0.00 in 0.08 in 1.05 in (2013)
Month to date precipitation 1.19  
Year to date precipitation 3.98  
Sea Level Pressure  
Sea Level Pressure 29.97 in    
Wind  
Wind Speed 5 mph (SSW)    
Max Wind Speed 14 mph    
Max Gust Speed 21 mph    
Visibility 10 miles    
Events      
T = Trace of Precipitation, MM = Missing Value Source: NWS Daily Summary

Daily Weather History Graph

Daily Weather History Graph

Search for Another Location

Airport or City:

Trip Planner

Search our weather history database for the weather conditions in past years. The results will help you decide how hot, cold, wet, or windy it might be!

Date:

Astronomy

May. 17, 2014 Rise Set
Actual Time 5:10 AM MDT 8:18 PM MDT
Civil Twilight 4:34 AM MDT 8:54 PM MDT
Nautical Twilight 3:47 AM MDT 9:41 PM MDT
Astronomical Twilight 2:49 AM MDT 10:39 PM MDT
Moon 11:18 PM MDT (5/17) 7:56 AM MDT (5/17)
Length of Visible Light 16h 20m
Length of Day
15h 07m
Waning Gibbous, 89% of the Moon is Illuminated
May 17
Waning Gibbous
May 21
Last Quarter
May 28
New
Jun 5
First Quarter
Jun 12
Full

Hourly Weather History & Observations

Time (MDT) Temp. Windchill Dew Point Humidity Pressure Visibility Wind Dir Wind Speed Gust Speed Precip Events Conditions
12:15 AM 37.4 °F 33.8 °F 32.0 °F 81% 30.04 in 10.0 mi SSW 4.6 mph - N/A   Scattered Clouds
12:35 AM 35.6 °F 32.8 °F 32.0 °F 87% 30.04 in 10.0 mi West 3.5 mph - N/A   Clear
12:55 AM 35.6 °F 32.8 °F 32.0 °F 87% 30.04 in 10.0 mi West 3.5 mph - N/A   Clear
1:15 AM 35.6 °F - 32.0 °F 87% 30.04 in 10.0 mi Calm Calm - N/A   Clear
1:35 AM 33.8 °F - 30.2 °F 87% 30.03 in 10.0 mi Calm Calm - N/A   Clear
1:55 AM 32.0 °F 26.4 °F 30.2 °F 93% 30.03 in 10.0 mi West 5.8 mph - N/A   Clear
2:15 AM 32.0 °F 28.7 °F 30.2 °F 93% 30.03 in 9.0 mi West 3.5 mph - N/A   Clear
2:35 AM 32.0 °F 26.4 °F 30.2 °F 93% 30.02 in 10.0 mi WNW 5.8 mph - N/A   Clear
2:55 AM 32.0 °F - 28.4 °F 87% 30.02 in 10.0 mi Calm Calm - N/A   Clear
3:15 AM 32.0 °F - 28.4 °F 87% 30.02 in 10.0 mi Calm Calm - N/A   Clear
3:35 AM 32.0 °F 27.5 °F 30.2 °F 93% 30.02 in 10.0 mi WNW 4.6 mph - N/A   Clear
3:55 AM 32.0 °F 27.5 °F 30.2 °F 93% 30.02 in 9.0 mi SW 4.6 mph - N/A   Scattered Clouds
4:15 AM 33.8 °F - 30.2 °F 87% 30.02 in 10.0 mi Calm Calm - N/A   Overcast
4:35 AM 33.8 °F - 30.2 °F 87% 30.02 in 10.0 mi Calm Calm - N/A   Overcast
4:55 AM 33.8 °F - 30.2 °F 87% 30.02 in 10.0 mi Calm Calm - N/A   Overcast
5:15 AM 33.8 °F - 30.2 °F 87% 30.02 in 10.0 mi Calm Calm - N/A   Mostly Cloudy
5:35 AM 35.6 °F - 32.0 °F 87% 30.02 in 10.0 mi Calm Calm - N/A   Mostly Cloudy
5:55 AM 37.4 °F - 33.8 °F 87% 30.02 in 10.0 mi Calm Calm - N/A   Overcast
6:15 AM 41.0 °F - 35.6 °F 81% 30.02 in 10.0 mi Calm Calm - N/A   Overcast
6:35 AM 41.0 °F - 37.4 °F 87% 30.02 in 10.0 mi Calm Calm - N/A   Mostly Cloudy
6:55 AM 44.6 °F - 39.2 °F 81% 30.02 in 10.0 mi Calm Calm - N/A   Mostly Cloudy
7:15 AM 46.4 °F - 39.2 °F 76% 30.02 in 10.0 mi Calm Calm - N/A   Overcast
7:35 AM 48.2 °F - 39.2 °F 71% 30.02 in 10.0 mi Calm Calm - N/A   Overcast
7:55 AM 48.2 °F - 41.0 °F 76% 30.02 in 10.0 mi WNW 5.8 mph - N/A   Scattered Clouds
8:15 AM 51.8 °F - 39.2 °F 62% 30.02 in 10.0 mi West 4.6 mph - N/A   Clear
8:35 AM 53.6 °F - 41.0 °F 62% 30.02 in 10.0 mi Variable 4.6 mph - N/A   Clear
8:55 AM 55.4 °F - 41.0 °F 58% 30.02 in 10.0 mi Calm Calm - N/A   Clear
9:15 AM 57.2 °F - 39.2 °F 51% 30.02 in 10.0 mi Calm Calm - N/A   Clear
9:35 AM 59.0 °F - 37.4 °F 45% 30.01 in 10.0 mi South 5.8 mph - N/A   Clear
9:55 AM 59.0 °F - 35.6 °F 42% 30.00 in 10.0 mi SSW 9.2 mph - N/A   Clear
10:15 AM 60.8 °F - 33.8 °F 36% 30.01 in 10.0 mi Variable 5.8 mph 12.7 mph N/A   Clear
10:35 AM 60.8 °F - 32.0 °F 34% 30.00 in 10.0 mi SW 10.4 mph - N/A   Clear
10:55 AM 60.8 °F - 35.6 °F 39% 30.00 in 10.0 mi SW 6.9 mph 15.0 mph N/A   Partly Cloudy
11:15 AM 62.6 °F - 35.6 °F 37% 29.99 in 10.0 mi South 9.2 mph - N/A   Scattered Clouds
11:35 AM 62.6 °F - 35.6 °F 37% 29.99 in 10.0 mi South 9.2 mph - N/A   Scattered Clouds
11:55 AM 64.4 °F - 35.6 °F 34% 29.98 in 10.0 mi South 13.8 mph 20.7 mph N/A   Scattered Clouds
12:15 PM 62.6 °F - 35.6 °F 37% 29.98 in 10.0 mi SW 6.9 mph 17.3 mph N/A   Unknown
12:35 PM 62.6 °F - 37.4 °F 39% 29.98 in 10.0 mi SW 9.2 mph 16.1 mph N/A   Overcast
12:55 PM 62.6 °F - 35.6 °F 37% 29.97 in 10.0 mi South 9.2 mph 16.1 mph N/A   Overcast
1:15 PM 64.4 °F - 35.6 °F 34% 29.97 in 10.0 mi South 10.4 mph - N/A   Overcast
1:35 PM 62.6 °F - 35.6 °F 37% 29.97 in 10.0 mi SSW 8.1 mph - N/A   Overcast
1:55 PM 64.4 °F - 35.6 °F 34% 29.96 in 10.0 mi SSW 13.8 mph - N/A   Overcast
2:15 PM 64.4 °F - 35.6 °F 34% 29.95 in 10.0 mi SW 11.5 mph - N/A   Mostly Cloudy
2:35 PM 64.4 °F - 35.6 °F 34% 29.95 in 10.0 mi SW 9.2 mph - N/A   Overcast
2:55 PM 64.4 °F - 35.6 °F 34% 29.95 in 10.0 mi South 10.4 mph - N/A   Overcast
3:15 PM 64.4 °F - 35.6 °F 34% 29.94 in 10.0 mi SSW 12.7 mph - N/A   Overcast
3:35 PM 64.4 °F - 35.6 °F 34% 29.94 in 10.0 mi SW 8.1 mph 17.3 mph N/A   Overcast
3:55 PM 64.4 °F - 35.6 °F 34% 29.94 in 10.0 mi SSW 6.9 mph - N/A   Overcast
4:15 PM 64.4 °F - 33.8 °F 32% 29.93 in 10.0 mi Calm Calm - N/A   Overcast
4:35 PM 64.4 °F - 35.6 °F 34% 29.93 in 10.0 mi Variable 4.6 mph - N/A   Overcast
4:55 PM 64.4 °F - 35.6 °F 34% 29.92 in 10.0 mi WSW 8.1 mph 13.8 mph N/A   Overcast
5:15 PM 64.4 °F - 35.6 °F 34% 29.92 in 10.0 mi SSW 8.1 mph - N/A   Overcast
5:35 PM 64.4 °F - 35.6 °F 34% 29.92 in 8.0 mi SW 4.6 mph 12.7 mph N/A   Overcast
5:55 PM 64.4 °F - 35.6 °F 34% 29.92 in 10.0 mi WSW 8.1 mph - N/A   Overcast
6:15 PM 64.4 °F - 35.6 °F 34% 29.91 in 10.0 mi SW 4.6 mph - N/A   Overcast
6:35 PM 64.4 °F - 35.6 °F 34% 29.91 in 10.0 mi SSW 5.8 mph - N/A   Overcast
6:55 PM 62.6 °F - 37.4 °F 39% 29.91 in 10.0 mi SSW 4.6 mph - N/A   Overcast
7:15 PM 62.6 °F - 37.4 °F 39% 29.91 in 10.0 mi South 6.9 mph - N/A   Overcast
7:35 PM 60.8 °F - 39.2 °F 45% 29.91 in 10.0 mi Calm Calm - N/A   Overcast
7:55 PM 59.0 °F - 41.0 °F 51% 29.91 in 10.0 mi South 4.6 mph - N/A   Overcast
8:15 PM 57.2 °F - 41.0 °F 55% 29.91 in 4.0 mi SSE 5.8 mph - N/A   Haze
8:35 PM 55.4 °F - 41.0 °F 58% 29.90 in 4.0 mi South 6.9 mph - N/A   Haze
8:55 PM 53.6 °F - 41.0 °F 62% 29.91 in 8.0 mi South 8.1 mph - N/A   Overcast
9:15 PM 51.8 °F - 41.0 °F 67% 29.91 in 10.0 mi South 8.1 mph - N/A   Mostly Cloudy
9:35 PM 51.8 °F - 39.2 °F 62% 29.91 in 10.0 mi South 9.2 mph - N/A   Mostly Cloudy
9:55 PM 51.8 °F - 39.2 °F 62% 29.91 in 10.0 mi South 9.2 mph - N/A   Mostly Cloudy
10:15 PM 51.8 °F - 39.2 °F 62% 29.91 in 10.0 mi South 9.2 mph - N/A   Overcast
10:35 PM 50.0 °F - 39.2 °F 66% 29.91 in 10.0 mi South 9.2 mph - N/A   Mostly Cloudy
10:55 PM 48.2 °F - 39.2 °F 71% 29.91 in 10.0 mi South 9.2 mph - N/A   Clear
11:15 PM 48.2 °F - 37.4 °F 66% 29.91 in 10.0 mi South 9.2 mph - N/A   Clear
11:35 PM 48.2 °F - 39.2 °F 71% 29.91 in 10.0 mi South 8.1 mph - N/A   Mostly Cloudy
11:55 PM 48.2 °F - 39.2 °F 71% 29.91 in 10.0 mi South 8.1 mph - N/A   Mostly Cloudy